Weather reports worldwide

Advertisment
Asturias/Aviles, Spain (8011): temperature & dewpoint: 05.12.2019 09:00:00 - 11.12.2019 09:00:00 (CET)Asturias/Aviles, Spain (8011): wind speed: 05.12.2019 09:00:00 - 11.12.2019 09:00:00 (CET)Asturias/Aviles, Spain (8011): wind direction: 05.12.2019 09:00:00 - 11.12.2019 09:00:00 (CET)Asturias/Aviles, Spain (8011): reduced air pressure: 05.12.2019 09:00:00 - 11.12.2019 09:00:00 (CET)Asturias/Aviles, Spain (8011): visibility: 05.12.2019 09:00:00 - 11.12.2019 09:00:00 (CET)
Date & Time tt [°C] td [°C] ff [km/h] ff [kn] dd ppp [hPa] vv [km]
11.12.2019 09:00:00 - - - - - - -
11.12.2019 08:00:00 8,8 6,5 22 12 W 1024,7 -
11.12.2019 07:00:00 8,5 7,5 18 10 W 1024,1 8
11.12.2019 06:00:00 9,6 9,1 26 14 WNW 1023,5 -
11.12.2019 05:00:00 9,1 9,1 16 9 WNW 1023,1 -
11.12.2019 04:00:00 9,5 9,5 18 10 WNW 1022,7 -
11.12.2019 03:00:00 10,0 9,7 22 12 WNW 1022,1 -
11.12.2019 02:00:00 12,0 11,5 35 19 WNW 1020,6 -
11.12.2019 01:00:00 15,0 6,1 15 8 WSW 1019,3 -
11.12.2019 00:00:00 15,7 4,6 13 7 SW 1019,8 -
10.12.2019 23:00:00 15,6 3,1 24 13 WSW 1020,1 -
10.12.2019 22:00:00 14,7 0,5 11 6 SW 1020,5 20
10.12.2019 21:00:00 13,8 1,4 9 5 SW 1021,1 -
10.12.2019 20:00:00 15,7 -2,3 22 12 SW 1020,9 -
10.12.2019 19:00:00 11,6 4,3 9 5 SSW 1021,9 25
10.12.2019 18:00:00 11,3 4,2 11 6 SSW 1022,3 -
10.12.2019 17:00:00 11,3 5,1 8 4 SSE 1022,7 -
10.12.2019 16:00:00 12,8 6,0 0 0 N 1022,9 25
10.12.2019 15:00:00 12,9 7,1 4 2 SW 1023,5 -
10.12.2019 14:00:00 11,7 5,0 5 3 SW 1024,5 -
10.12.2019 13:00:00 11,0 2,8 11 6 SSW 1025,2 25
10.12.2019 12:00:00 11,8 2,7 11 6 SW 1026,6 -
10.12.2019 11:00:00 8,4 1,3 16 9 SSW 1027,2 -
10.12.2019 10:00:00 7,6 1,2 13 7 SW 1027,8 20
10.12.2019 09:00:00 5,9 1,2 18 10 SSW 1028,1 -
10.12.2019 08:00:00 5,5 1,2 21 11 SSW 1028,3 -
10.12.2019 07:00:00 5,6 1,9 15 8 SW 1028,9 15
10.12.2019 06:00:00 5,3 2,0 13 7 SW 1029,1 -
10.12.2019 05:00:00 5,3 3,1 16 9 SW 1029,6 -
10.12.2019 04:00:00 5,8 2,9 16 9 SW 1030,5 -
10.12.2019 03:00:00 6,0 3,6 18 10 SSW 1031,4 -
10.12.2019 02:00:00 6,4 4,7 16 9 SSW 1031,8 -
10.12.2019 01:00:00 7,4 5,0 15 8 SSW 1032,8 -
10.12.2019 00:00:00 7,0 5,8 11 6 SW 1032,9 -
09.12.2019 23:00:00 8,0 5,8 11 6 SSW 1032,8 -
09.12.2019 22:00:00 8,6 6,7 11 6 SW 1032,8 10
09.12.2019 21:00:00 10,0 8,5 5 3 SW 1033,2 -
09.12.2019 20:00:00 11,6 8,8 4 2 WNW 1033,3 -
09.12.2019 19:00:00 11,7 8,9 4 2 WNW 1032,9 6
09.12.2019 18:00:00 11,9 8,0 9 5 WNW 1032,6 -
09.12.2019 17:00:00 12,2 8,5 13 7 WNW 1032,6 -
09.12.2019 16:00:00 12,6 8,3 11 6 WNW 1032,2 6
09.12.2019 15:00:00 13,1 7,8 22 12 WNW 1032,0 -
09.12.2019 14:00:00 12,9 7,2 24 13 WNW 1032,1 -
09.12.2019 13:00:00 13,3 7,3 22 12 W 1032,5 18
09.12.2019 12:00:00 12,8 7,2 18 10 W 1032,4 -
09.12.2019 11:00:00 12,9 6,4 21 11 W 1032,2 -
09.12.2019 10:00:00 11,6 5,5 16 9 WSW 1032,0 12
09.12.2019 09:00:00 11,8 4,8 21 11 W 1031,2 -
09.12.2019 08:00:00 12,4 5,3 26 14 W 1030,9 -
09.12.2019 07:00:00 12,3 5,2 29 16 W 1029,6 10
09.12.2019 06:00:00 - - - - - - -
09.12.2019 05:00:00 11,6 4,3 31 17 W 1029,3 -
09.12.2019 04:00:00 11,0 3,3 22 12 W 1028,9 -
09.12.2019 03:00:00 11,1 1,9 21 11 W 1028,4 -
09.12.2019 02:00:00 9,2 2,9 13 7 WSW 1028,0 -
09.12.2019 01:00:00 9,3 4,0 16 9 SW 1027,8 -
09.12.2019 00:00:00 10,0 5,0 16 9 W 1027,9 -
08.12.2019 23:00:00 10,8 6,0 22 12 W 1027,3 -
08.12.2019 22:00:00 11,1 6,0 22 12 W 1027,8 15
08.12.2019 21:00:00 11,0 6,0 22 12 W 1027,5 -
08.12.2019 20:00:00 11,2 6,8 22 12 W 1027,1 -
08.12.2019 19:00:00 11,4 8,1 18 10 W 1026,9 15
08.12.2019 18:00:00 11,9 9,1 18 10 W 1026,3 -
08.12.2019 17:00:00 12,1 9,5 18 10 W 1025,8 -
08.12.2019 16:00:00 12,1 10,1 22 12 WNW 1025,6 10
08.12.2019 15:00:00 12,0 12,0 31 17 WNW 1024,9 -
08.12.2019 14:00:00 12,0 12,0 29 16 W 1024,2 -
08.12.2019 13:00:00 13,5 13,5 28 15 WNW 1023,4 1,3
08.12.2019 12:00:00 13,9 13,9 13 7 WNW 1023,6 -
08.12.2019 11:00:00 14,1 13,8 9 5 W 1022,9 -
08.12.2019 10:00:00 13,6 13,1 9 5 WSW 1022,1 8
08.12.2019 09:00:00 13,8 12,5 13 7 SW 1021,1 -
08.12.2019 08:00:00 13,8 11,2 11 6 WSW 1020,7 -
08.12.2019 07:00:00 14,6 9,8 15 8 SW 1020,1 20
08.12.2019 06:00:00 13,5 9,3 15 8 SW 1020,3 -
08.12.2019 05:00:00 12,5 9,0 9 5 SSW 1020,9 -
08.12.2019 04:00:00 12,0 9,0 8 4 SSW 1021,4 -
08.12.2019 03:00:00 12,4 8,7 9 5 SW 1021,5 -
08.12.2019 02:00:00 12,5 8,6 9 5 SSW 1021,8 -
08.12.2019 01:00:00 12,2 8,8 11 6 SSW 1022,4 -
08.12.2019 00:00:00 11,8 9,0 13 7 SSW 1022,6 -
07.12.2019 23:00:00 11,9 9,1 15 8 SSW 1022,8 -
07.12.2019 22:00:00 12,3 8,9 11 6 SSW 1022,9 10
07.12.2019 21:00:00 11,6 9,0 5 3 S 1023,2 -
07.12.2019 20:00:00 10,4 7,4 11 6 SE 1023,3 -
07.12.2019 19:00:00 11,5 9,3 4 2 SSE 1023,0 12
07.12.2019 18:00:00 12,6 8,5 5 3 NNW 1023,0 -
07.12.2019 17:00:00 14,1 10,7 5 3 N 1022,3 -
07.12.2019 16:00:00 15,4 9,6 8 4 SSE 1021,6 15
07.12.2019 15:00:00 14,9 9,0 4 2 ENE 1021,9 -
07.12.2019 14:00:00 14,9 8,1 4 2 NW 1022,7 -
07.12.2019 13:00:00 13,8 7,1 8 4 WSW 1023,3 15
07.12.2019 12:00:00 12,5 5,8 15 8 SSW 1023,8 -
07.12.2019 11:00:00 10,8 4,9 15 8 SSW 1023,9 -
07.12.2019 10:00:00 10,0 4,8 15 8 SSW 1023,7 -
07.12.2019 09:00:00 10,0 4,8 15 8 SSW 1023,3 -
07.12.2019 08:00:00 9,7 5,1 15 8 SW 1023,1 -
07.12.2019 07:00:00 8,9 5,1 13 7 SSW 1022,7 10
07.12.2019 06:00:00 9,2 5,2 9 5 SW 1022,6 -
07.12.2019 05:00:00 9,0 5,4 11 6 SW 1022,8 -
07.12.2019 04:00:00 9,1 6,0 13 7 SSW 1023,0 -
07.12.2019 03:00:00 9,4 6,4 13 7 SSW 1023,1 -
07.12.2019 02:00:00 9,4 6,8 11 6 SW 1023,2 -
07.12.2019 01:00:00 8,9 7,1 13 7 SW 1023,7 -
07.12.2019 00:00:00 8,5 7,4 15 8 SSW 1023,7 -
06.12.2019 23:00:00 8,3 7,4 11 6 SSW 1023,8 -
06.12.2019 22:00:00 8,1 7,0 9 5 SW 1023,9 20
06.12.2019 21:00:00 9,2 7,6 9 5 SW 1023,5 -
06.12.2019 20:00:00 9,3 7,7 9 5 SW 1022,9 -
06.12.2019 19:00:00 9,7 7,5 11 6 W 1022,8 25
06.12.2019 18:00:00 10,8 7,8 8 4 WSW 1022,4 -
06.12.2019 17:00:00 12,1 8,3 15 8 W 1022,3 -
06.12.2019 16:00:00 12,2 8,8 15 8 WNW 1022,1 25
06.12.2019 15:00:00 12,1 8,3 9 5 WNW 1022,1 -
06.12.2019 14:00:00 11,8 8,3 8 4 WNW 1022,5 -
06.12.2019 13:00:00 10,7 6,9 8 4 WSW 1023,2 30
06.12.2019 12:00:00 10,4 8,0 5 3 SW 1023,7 -
06.12.2019 11:00:00 9,5 7,8 9 5 SW 1024,5 -
06.12.2019 10:00:00 7,9 5,7 9 5 SW 1024,0 30
06.12.2019 09:00:00 7,2 5,7 15 8 SW 1023,0 -
06.12.2019 08:00:00 7,3 5,6 13 7 SW 1023,1 -
06.12.2019 07:00:00 7,0 5,9 11 6 SW 1023,0 30
06.12.2019 06:00:00 7,3 6,7 15 8 SSW 1022,9 -
06.12.2019 05:00:00 7,9 7,1 9 5 SSW 1023,6 -
06.12.2019 04:00:00 8,0 6,7 4 2 SW 1023,9 -
06.12.2019 03:00:00 8,4 7,6 11 6 SSW 1023,5 -
06.12.2019 02:00:00 9,3 7,7 13 7 SSW 1023,7 -
06.12.2019 01:00:00 9,5 8,3 11 6 SSW 1024,3 -
06.12.2019 00:00:00 9,2 8,3 9 5 SSW 1024,3 -
05.12.2019 23:00:00 9,4 9,1 8 4 S 1024,2 -
05.12.2019 22:00:00 9,2 9,0 4 2 S 1024,2 9
05.12.2019 21:00:00 9,2 9,1 9 5 SE 1024,2 -
05.12.2019 20:00:00 9,7 9,6 9 5 SE 1024,2 -
05.12.2019 19:00:00 9,9 9,6 9 5 ESE 1024,3 7
05.12.2019 18:00:00 10,5 10,3 9 5 ESE 1024,1 -
05.12.2019 17:00:00 10,8 10,5 8 4 E 1024,1 -
05.12.2019 16:00:00 10,7 10,4 9 5 ESE 1023,8 8
05.12.2019 15:00:00 10,4 10,1 9 5 SE 1024,1 -
05.12.2019 14:00:00 10,4 10,1 13 7 ESE 1024,6 -
05.12.2019 13:00:00 11,0 8,9 9 5 ESE 1024,8 20
05.12.2019 12:00:00 11,5 11,2 11 6 ESE 1024,8 -
05.12.2019 11:00:00 8,5 8,4 8 4 SSE 1024,8 -
05.12.2019 10:00:00 8,2 7,8 5 3 S 1024,2 6
05.12.2019 09:00:00 8,0 7,4 9 5 S 1023,6 -

tt = temperature
td = dewpoint
ff = wind speed
dd = wind direction
ppp = reduced air pressure
vv = visibility

Next stations